Weather History for ETSL - May, 2013

Change the Weather History Date:

Thursday, May 16, 2013

  Actual Average (EDMA) Record (EDMA)
Temperature  
Mean Temperature 55 °F -  
Max Temperature 71 °F 65 °F 84 °F (1997)
Min Temperature 39 °F 45 °F 28 °F (2003)
Degree Days  
Heating Degree Days 10    
Growing Degree Days 5 (Base 50)    
Moisture  
Dew Point 50 °F    
Average Humidity 80    
Maximum Humidity 100    
Minimum Humidity 43    
Precipitation  
Precipitation 0.00 in - - ()
Sea Level Pressure  
Sea Level Pressure 29.43 in    
Wind  
Wind Speed 4 mph ()    
Max Wind Speed 10 mph    
Max Gust Speed -    
Visibility 5.4 miles    
Events Fog    
Averages and records for this station are not official NWS values.
T = Trace of Precipitation, MM = Missing Value Source: Averaged Metar Reports

Daily Weather History Graph

Daily Weather History Graph

Search for Another Location

Airport or City:

Trip Planner

Search our weather history database for the weather conditions in past years. The results will help you decide how hot, cold, wet, or windy it might be!

Date:

Astronomy

May. 16, 2013 Rise Set
Actual Time 5:35 AM CEST 8:50 PM CEST
Civil Twilight 4:58 AM CEST 9:28 PM CEST
Nautical Twilight 4:09 AM CEST 10:17 PM CEST
Astronomical Twilight 3:07 AM CEST 11:20 PM CEST
Moon 11:00 AM CEST (5/16) 12:55 AM CEST (5/16)
Length of Visible Light 16h 29m
Length of Day
15h 14m
Waxing Crescent, 33% of the Moon is Illuminated
May 16
Waxing Crescent
May 18
First Quarter
May 25
Full
May 31
Last Quarter
Jun 8
New

Hourly Weather History & Observations

Time (CEST) Temp. Windchill Dew Point Humidity Pressure Visibility Wind Dir Wind Speed Gust Speed Precip Events Conditions
12:20 AM 53.6 °F - 50.0 °F 88% 29.59 in 6.2 mi West 3.5 mph - N/A   Mostly Cloudy
3:20 AM 50.0 °F - 48.2 °F 94% 29.56 in 6.2 mi NNW 3.5 mph - N/A   Mostly Cloudy
4:20 AM 46.4 °F - 46.4 °F 100% 29.56 in 6.2 mi Variable 2.3 mph - N/A Fog Shallow Fog
4:45 AM 44.6 °F - 44.6 °F 100% 29.53 in 0.2 mi Variable 1.2 mph - N/A Fog Fog
5:20 AM 39.2 °F - 39.2 °F 100% 29.53 in 0.2 mi ESE 2.3 mph - N/A Fog Fog
6:20 AM 44.6 °F 43.1 °F 44.6 °F 100% 29.50 in 1.2 mi ENE 3.5 mph - N/A Fog Patches of Fog
7:20 AM 50.0 °F - 50.0 °F 100% 29.47 in 3.7 mi East 4.6 mph - N/A   Mostly Cloudy
8:20 AM 53.6 °F - 50.0 °F 88% 29.44 in 6.2 mi ENE 10.4 mph - N/A   Mostly Cloudy
9:20 AM 55.4 °F - 50.0 °F 82% 29.42 in 6.2 mi East 6.9 mph - N/A   Mostly Cloudy
10:20 AM 55.4 °F - 50.0 °F 82% 29.42 in 6.2 mi NE 5.8 mph - N/A   Mostly Cloudy
11:20 AM 55.4 °F - 50.0 °F 82% 29.39 in 6.2 mi NE 3.5 mph - N/A   Mostly Cloudy
12:20 PM 57.2 °F - 51.8 °F 82% 29.39 in 6.2 mi North 6.9 mph - N/A   Mostly Cloudy
1:20 PM 60.8 °F - 51.8 °F 72% 29.36 in 6.2 mi NE 8.1 mph - N/A   Mostly Cloudy
2:20 PM 64.4 °F - 51.8 °F 64% 29.36 in 6.2 mi NNE 8.1 mph - N/A   Mostly Cloudy
3:20 PM 68.0 °F - 51.8 °F 56% 29.36 in 6.2 mi ENE 8.1 mph - N/A   Mostly Cloudy
4:20 PM 71.6 °F - 51.8 °F 50% 29.33 in 6.2 mi NE 9.2 mph - N/A   Mostly Cloudy
5:20 PM 71.6 °F - 48.2 °F 43% 29.33 in 6.2 mi NNE 5.8 mph - N/A   Mostly Cloudy
6:20 PM 69.8 °F - 50.0 °F 49% 29.36 in 6.2 mi North 5.8 mph - N/A   Mostly Cloudy
7:20 PM 66.2 °F - 55.4 °F 68% 29.36 in 6.2 mi West 8.1 mph - N/A   Mostly Cloudy
8:20 PM 62.6 °F - 53.6 °F 72% 29.39 in 6.2 mi WSW 6.9 mph - N/A   Partly Cloudy
9:20 PM 59.0 °F - 51.8 °F 77% 29.39 in 6.2 mi SW 6.9 mph - N/A   Partly Cloudy
10:20 PM 57.2 °F - 53.6 °F 88% 29.42 in 6.2 mi WSW 5.8 mph - N/A   Scattered Clouds
11:20 PM 57.2 °F - 53.6 °F 88% 29.44 in 6.2 mi West 5.8 mph - N/A   Scattered Clouds
11:48 PM 55.4 °F - 53.6 °F 94% 29.44 in 6.2 mi West 4.6 mph - N/A   Scattered Clouds